Haleyville, AL

7:01 AM CDT on October 19, 2017 (GMT -0500)
Haleyville

Weather History for K1M4 - September, 2012

Change the Weather History Date:

Thursday, September 13, 2012

  Actual Average (KJFX) Record (KJFX)
Temperature  
Mean Temperature 70 °F -  
Max Temperature 82 °F 85 °F 96 °F (2011)
Min Temperature 59 °F 59 °F 46 °F (1969)
Cooling Degree Days 6    
Growing Degree Days 20 (Base 50)    
Moisture  
Dew Point 61 °F    
Average Humidity 76    
Maximum Humidity 100    
Minimum Humidity 51    
Precipitation  
Precipitation 0.00 in - - ()
Sea Level Pressure  
Sea Level Pressure 30.29 in    
Wind  
Wind Speed 1 mph (SE)    
Max Wind Speed 12 mph    
Max Gust Speed -    
Visibility 10 miles    
Events      
Averages and records for this station are not official NWS values.
T = Trace of Precipitation, MM = Missing Value Source: NWS Daily Summary

Daily Weather History Graph

Daily Weather History Graph

Search for Another Location

Airport or City:

Trip Planner

Search our weather history database for the weather conditions in past years. The results will help you decide how hot, cold, wet, or windy it might be!

Date:

Astronomy

Sep. 13, 2012 Rise Set
Actual Time 6:32 AM CDT 6:59 PM CDT
Civil Twilight 6:07 AM CDT 7:24 PM CDT
Nautical Twilight 5:37 AM CDT 7:53 PM CDT
Astronomical Twilight 5:07 AM CDT 8:23 PM CDT
Moon 3:56 AM CDT (9/13) 5:18 PM CDT (9/13)
Length of Visible Light 13h 17m
Length of Day
12h 26m
Waning Crescent, 7% of the Moon is Illuminated
Sep 13
Waning Crescent
Sep 15
New
Sep 22
First Quarter
Sep 29
Full
Oct 8
Last Quarter

Hourly Weather History & Observations

Time (CDT) Temp. Heat Index Dew Point Humidity Pressure Visibility Wind Dir Wind Speed Gust Speed Precip Events Conditions
12:56 AM 65.8 °F - 57.9 °F 76% 30.29 in 10.0 mi Calm Calm - N/A   Clear
1:56 AM 64.9 °F - 57.9 °F 78% 30.28 in 10.0 mi Calm Calm - N/A   Clear
2:56 AM 63.9 °F - 56.8 °F 78% 30.28 in 10.0 mi Calm Calm - N/A   Clear
3:56 AM 59.0 °F - 56.8 °F 93% 30.29 in 10.0 mi Calm Calm - N/A   Clear
4:56 AM 59.0 °F - 57.9 °F 96% 30.30 in 10.0 mi Calm Calm - N/A   Clear
5:56 AM 61.0 °F - 56.8 °F 86% 30.31 in 10.0 mi Calm Calm - N/A   Clear
6:56 AM 61.9 °F - 56.8 °F 84% 30.32 in 10.0 mi Calm Calm - N/A   Clear
7:56 AM 63.9 °F - 57.9 °F 81% 30.33 in 10.0 mi Calm Calm - N/A   Clear
8:56 AM 70.9 °F - 59.9 °F 68% 30.34 in 10.0 mi ESE 5.8 mph - N/A   Clear
9:56 AM 73.9 °F - 61.9 °F 66% 30.35 in 10.0 mi SE 11.5 mph - N/A   Clear
10:56 AM 77.9 °F - 63.0 °F 60% 30.34 in 10.0 mi SE 8.1 mph - N/A   Clear
11:56 AM 79.9 °F - 63.9 °F 58% 30.32 in 10.0 mi Variable 6.9 mph - N/A   Partly Cloudy
12:56 PM 79.9 °F - 63.9 °F 58% 30.30 in 10.0 mi ESE 3.5 mph - N/A   Scattered Clouds
1:56 PM 79.9 °F - 61.9 °F 54% 30.27 in 10.0 mi Calm Calm - N/A   Mostly Cloudy
2:56 PM 82.9 °F 84.0 °F 63.0 °F 51% 30.26 in 10.0 mi Variable 4.6 mph - N/A   Mostly Cloudy
3:56 PM 81.9 °F 83.1 °F 63.0 °F 53% 30.25 in 10.0 mi Calm Calm - N/A   Mostly Cloudy
4:56 PM 81.0 °F 81.9 °F 61.9 °F 52% 30.25 in 10.0 mi Calm Calm - N/A   Clear
5:56 PM 79.0 °F - 63.0 °F 58% 30.25 in 10.0 mi Calm Calm - N/A   Clear
6:56 PM 72.0 °F - 65.8 °F 81% 30.25 in 10.0 mi Calm Calm - N/A   Clear
7:56 PM 66.9 °F - 63.9 °F 90% 30.26 in 10.0 mi Calm Calm - N/A   Clear
8:56 PM 64.9 °F - 63.9 °F 96% 30.29 in 10.0 mi Calm Calm - N/A   Clear
9:56 PM 63.9 °F - 63.0 °F 97% 30.29 in 8.0 mi Calm Calm - N/A   Clear
10:56 PM 61.9 °F - 61.9 °F 100% 30.30 in 7.0 mi Calm Calm - N/A   Clear
11:56 PM 61.0 °F - 61.0 °F 100% 30.30 in 5.0 mi Calm Calm - N/A   Clear